| time (UTC) | temp F | wind direction | speed MPH | gust MPH | rain 1hr in | rain 24hr in | rain mn in | humidity % | barometer mb |
| 20260903075528 | 64 | 282 | 0.0 | 3.0 | 0.01 | 0.01 | 0.01 | 82 | 1015.7 |
| 20260903075028 | 64 | 103 | 1.0 | 3.0 | 0.00 | 0.00 | 0.00 | 82 | 1015.7 |
| 20260903074544 | 64 | 0 | 0.0 | 2.0 | 0.00 | 0.00 | 0.00 | 83 | 1015.9 |
| 20260903074026 | 64 | 160 | 0.0 | 2.0 | 0.00 | 0.00 | 0.00 | 83 | 1016.0 |
| 20260903073532 | 64 | 0 | 0.0 | 2.0 | 0.00 | 0.00 | 0.00 | 83 | 1015.9 |
| 20260903073051 | 64 | 0 | 0.0 | 2.0 | 0.00 | 0.00 | 0.00 | 83 | 1016.0 |
| 20260903072526 | 64 | 0 | 0.0 | 2.0 | 0.00 | 0.00 | 0.00 | 83 | 1016.0 |
| 20260903072028 | 64 | 106 | 0.0 | 2.0 | 0.00 | 0.00 | 0.00 | 83 | 1015.9 |
| 20260903071547 | 64 | 0 | 0.0 | 3.0 | 0.00 | 0.00 | 0.00 | 83 | 1015.9 |
| 20260903071028 | 64 | 0 | 0.0 | 3.0 | 0.00 | 0.00 | 0.00 | 83 | 1015.9 |
| 20260903070530 | 64 | 0 | 0.0 | 3.0 | 0.00 | 0.00 | 0.00 | 83 | 1015.9 |
| 20260903070046 | 64 | 120 | 1.0 | 3.0 | 0.00 | 0.00 | 0.00 | 83 | 1016.0 |
| 20260903065525 | 64 | 124 | 1.0 | 3.0 | 0.00 | 0.00 | 0.00 | 83 | 1016.2 |
| 20260903065027 | 64 | 0 | 0.0 | 1.0 | 0.00 | 0.00 | 0.00 | 84 | 1016.3 |
| 20260903064544 | 64 | 0 | 0.0 | 1.0 | 0.00 | 0.00 | 0.00 | 84 | 1016.5 |
| 20260903064027 | 63 | 0 | 0.0 | 1.0 | 0.00 | 0.00 | 0.00 | 84 | 1016.7 |
| 20260903063524 | 63 | 0 | 0.0 | 1.0 | 0.00 | 0.00 | 0.00 | 84 | 1016.9 |
| 20260903063055 | 63 | 0 | 0.0 | 0.0 | 0.00 | 0.00 | 0.00 | 84 | 1016.9 |
| 20260903062529 | 63 | 0 | 0.0 | 1.0 | 0.00 | 0.00 | 0.00 | 84 | 1017.2 |
| 20260903062029 | 63 | 0 | 0.0 | 1.0 | 0.00 | 0.00 | 0.00 | 84 | 1017.4 |
| 20260903061559 | 63 | 0 | 0.0 | 1.0 | 0.00 | 0.00 | 0.00 | 85 | 1017.4 |
| 20260903061031 | 64 | 0 | 0.0 | 1.0 | 0.00 | 0.00 | 0.00 | 85 | 1017.5 |
| 20260903060528 | 64 | 0 | 0.0 | 1.0 | 0.00 | 0.00 | 0.00 | 84 | 1017.6 |
| 20260903060103 | 63 | 0 | 0.0 | 1.0 | 0.00 | 0.00 | 0.00 | 85 | 1017.7 |
| 20260903055530 | 63 | 129 | 0.0 | 0.0 | 0.00 | 0.00 | 0.00 | 85 | 1017.8 |
| 20260903055027 | 64 | 0 | 0.0 | 1.0 | 0.00 | 0.00 | 0.00 | 85 | 1018.0 |
| 20260903054542 | 64 | 0 | 0.0 | 1.0 | 0.00 | 0.00 | 0.00 | 85 | 1018.1 |
| 20260903054028 | 64 | 0 | 0.0 | 1.0 | 0.00 | 0.00 | 0.00 | 85 | 1018.2 |
| 20260903053526 | 64 | 0 | 0.0 | 1.0 | 0.00 | 0.00 | 0.00 | 85 | 1018.1 |
| 20260903053105 | 64 | 0 | 0.0 | 1.0 | 0.00 | 0.00 | 0.00 | 85 | 1018.1 |
| 20260903052527 | 64 | 0 | 0.0 | 2.0 | 0.00 | 0.00 | 0.00 | 85 | 1018.0 |
| 20260903052028 | 64 | 0 | 0.0 | 2.0 | 0.00 | 0.00 | 0.00 | 85 | 1017.9 |
| 20260903051548 | 64 | 0 | 0.0 | 2.0 | 0.00 | 0.00 | 0.00 | 85 | 1018.0 |
| 20260903051024 | 64 | 126 | 0.0 | 2.0 | 0.00 | 0.00 | 0.00 | 85 | 1017.9 |
| 20260903050528 | 64 | 124 | 0.0 | 2.0 | 0.00 | 0.00 | 0.00 | 85 | 1017.9 |
| 20260903050053 | 64 | 0 | 0.0 | 1.0 | 0.00 | 0.00 | 0.00 | 86 | 1018.0 |
| 20260903045528 | 64 | 0 | 0.0 | 2.0 | 0.00 | 0.00 | 0.00 | 85 | 1018.1 |
| 20260903045026 | 64 | 0 | 0.0 | 2.0 | 0.00 | 0.00 | 0.00 | 85 | 1018.3 |
| 20260903044549 | 64 | 163 | 0.0 | 0.0 | 0.00 | 0.00 | 0.00 | 86 | 1018.4 |
| 20260903044028 | 64 | 0 | 0.0 | 0.0 | 0.00 | 0.00 | 0.00 | 86 | 1018.7 |
| 20260903043527 | 64 | 164 | 0.0 | 0.0 | 0.00 | 0.00 | 0.00 | 86 | 1018.6 |
| 20260903043046 | 64 | 0 | 0.0 | 2.0 | 0.00 | 0.00 | 0.00 | 86 | 1018.5 |
| 20260903042526 | 64 | 155 | 0.0 | 2.0 | 0.00 | 0.00 | 0.00 | 86 | 1018.3 |
| 20260903042024 | 64 | 143 | 0.0 | 2.0 | 0.00 | 0.00 | 0.00 | 86 | 1018.4 |
| 20260903041545 | 64 | 140 | 0.0 | 2.0 | 0.00 | 0.00 | 0.00 | 87 | 1018.3 |
| 20260903041025 | 63 | 150 | 0.0 | 0.0 | 0.00 | 0.00 | 0.00 | 88 | 1018.2 |
| 20260903040529 | 63 | 0 | 0.0 | 0.0 | 0.00 | 0.00 | 0.00 | 88 | 1018.4 |
| 20260903040049 | 63 | 0 | 0.0 | 0.0 | 0.00 | 0.00 | 0.00 | 88 | 1018.5 |
| 20260903035529 | 63 | 0 | 0.0 | 0.0 | 0.00 | 0.00 | 0.00 | 88 | 1018.5 |
| 20260903035028 | 63 | 0 | 0.0 | 0.0 | 0.00 | 0.00 | 0.00 | 87 | 1018.4 |
| 20260903034546 | 63 | 0 | 0.0 | 0.0 | 0.00 | 0.00 | 0.00 | 87 | 1018.2 |
| 20260903034028 | 64 | 0 | 0.0 | 0.0 | 0.00 | 0.00 | 0.00 | 86 | 1018.4 |
| 20260903033528 | 64 | 0 | 0.0 | 0.0 | 0.00 | 0.00 | 0.00 | 86 | 1018.6 |
| 20260903033051 | 64 | 0 | 0.0 | 0.0 | 0.00 | 0.00 | 0.00 | 86 | 1018.7 |
| 20260903032526 | 64 | 0 | 0.0 | 0.0 | 0.00 | 0.00 | 0.00 | 85 | 1018.7 |
| 20260903032026 | 64 | 0 | 0.0 | 0.0 | 0.00 | 0.00 | 0.00 | 85 | 1018.8 |
| 20260903031549 | 64 | 0 | 0.0 | 0.0 | 0.00 | 0.00 | 0.00 | 85 | 1018.8 |
| 20260903031024 | 64 | 0 | 0.0 | 0.0 | 0.00 | 0.00 | 0.00 | 85 | 1018.9 |
| 20260903030524 | 64 | 0 | 0.0 | 0.0 | 0.00 | 0.00 | 0.00 | 85 | 1019.1 |
| 20260903030110 | 64 | 0 | 0.0 | 0.0 | 0.00 | 0.00 | 0.00 | 85 | 1019.1 |
| 20260903025529 | 64 | 0 | 0.0 | 0.0 | 0.00 | 0.00 | 0.00 | 85 | 1019.2 |
| 20260903025027 | 64 | 0 | 0.0 | 1.0 | 0.00 | 0.00 | 0.00 | 85 | 1019.2 |
| 20260903024548 | 64 | 0 | 0.0 | 1.0 | 0.00 | 0.00 | 0.00 | 85 | 1019.2 |
| 20260903024027 | 64 | 285 | 0.0 | 0.0 | 0.00 | 0.00 | 0.00 | 85 | 1019.3 |
| 20260903023527 | 65 | 0 | 0.0 | 1.0 | 0.00 | 0.00 | 0.00 | 84 | 1019.3 |
| 20260903023046 | 64 | 0 | 0.0 | 1.0 | 0.00 | 0.00 | 0.00 | 84 | 1019.3 |
| 20260903022524 | 64 | 0 | 0.0 | 1.0 | 0.00 | 0.00 | 0.00 | 84 | 1019.3 |
| 20260903022024 | 65 | 0 | 0.0 | 1.0 | 0.00 | 0.00 | 0.00 | 84 | 1019.3 |
| 20260903021545 | 65 | 0 | 0.0 | 1.0 | 0.00 | 0.00 | 0.00 | 84 | 1019.2 |
| 20260903021026 | 65 | 0 | 0.0 | 1.0 | 0.00 | 0.00 | 0.00 | 84 | 1019.3 |
| 20260903020528 | 64 | 0 | 0.0 | 0.0 | 0.00 | 0.00 | 0.00 | 84 | 1019.3 |
| 20260903020050 | 65 | 0 | 0.0 | 0.0 | 0.00 | 0.00 | 0.00 | 84 | 1019.3 |
| 20260903015525 | 65 | 0 | 0.0 | 0.0 | 0.00 | 0.00 | 0.00 | 84 | 1019.4 |
| 20260903015027 | 65 | 0 | 0.0 | 2.0 | 0.00 | 0.00 | 0.00 | 83 | 1019.6 |
| 20260903014555 | 65 | 0 | 0.0 | 2.0 | 0.00 | 0.00 | 0.00 | 83 | 1019.5 |
| 20260903014026 | 65 | 0 | 0.0 | 2.0 | 0.00 | 0.00 | 0.00 | 83 | 1019.5 |
| 20260903013529 | 65 | 0 | 0.0 | 1.0 | 0.00 | 0.00 | 0.00 | 82 | 1019.4 |
| 20260903013047 | 65 | 0 | 0.0 | 1.0 | 0.00 | 0.00 | 0.00 | 82 | 1019.4 |
| 20260903012528 | 65 | 0 | 0.0 | 2.0 | 0.00 | 0.00 | 0.00 | 81 | 1019.1 |
| 20260903012028 | 65 | 0 | 0.0 | 4.0 | 0.00 | 0.00 | 0.00 | 81 | 1019.1 |
| 20260903011605 | 65 | 136 | 0.0 | 4.0 | 0.00 | 0.00 | 0.00 | 81 | 1019.1 |
| 20260903011026 | 65 | 127 | 1.0 | 4.0 | 0.00 | 0.00 | 0.00 | 81 | 1019.2 |
| 20260903010525 | 65 | 136 | 0.0 | 2.0 | 0.00 | 0.00 | 0.00 | 81 | 1019.3 |
| 20260903010059 | 65 | 110 | 0.0 | 3.0 | 0.00 | 0.00 | 0.00 | 80 | 1019.4 |
| 20260903005526 | 65 | 0 | 0.0 | 3.0 | 0.00 | 0.00 | 0.00 | 80 | 1019.3 |
| 20260903005033 | 66 | 0 | 0.0 | 3.0 | 0.00 | 0.00 | 0.00 | 80 | 1019.3 |
| 20260903004546 | 66 | 140 | 0.0 | 1.0 | 0.00 | 0.00 | 0.00 | 80 | 1019.3 |
| 20260903004029 | 66 | 138 | 0.0 | 5.0 | 0.00 | 0.00 | 0.00 | 80 | 1019.4 |
| 20260903003525 | 66 | 0 | 0.0 | 5.0 | 0.00 | 0.00 | 0.00 | 80 | 1019.5 |
| 20260903003055 | 66 | 113 | 1.0 | 5.0 | 0.00 | 0.00 | 0.00 | 79 | 1019.5 |
| 20260903002525 | 66 | 318 | 0.0 | 4.0 | 0.00 | 0.00 | 0.00 | 79 | 1019.4 |
| 20260903002026 | 65 | 131 | 1.0 | 4.0 | 0.00 | 0.00 | 0.00 | 79 | 1019.5 |
| 20260903001552 | 65 | 357 | 0.0 | 3.0 | 0.00 | 0.00 | 0.00 | 80 | 1019.6 |
| 20260903001029 | 65 | 0 | 0.0 | 3.0 | 0.00 | 0.00 | 0.00 | 79 | 1019.5 |
| 20260903000527 | 66 | 0 | 0.0 | 2.0 | 0.00 | 0.00 | 0.00 | 78 | 1019.6 |
| 20260903000048 | 66 | 95 | 0.0 | 2.0 | 0.00 | 0.00 | 0.00 | 77 | 1019.8 |
| 20260902235525 | 66 | 0 | 0.0 | 2.0 | 0.00 | 0.00 | 0.00 | 77 | 1020.0 |
| 20260902235025 | 66 | 0 | 0.0 | 1.0 | 0.00 | 0.00 | 0.00 | 76 | 1020.0 |
| 20260902234546 | 66 | 0 | 0.0 | 1.0 | 0.00 | 0.00 | 0.00 | 75 | 1020.0 |
| 20260902234026 | 66 | 0 | 0.0 | 2.0 | 0.00 | 0.00 | 0.00 | 75 | 1020.1 |
| 20260902233526 | 67 | 101 | 0.0 | 2.0 | 0.00 | 0.00 | 0.00 | 74 | 1020.2 |
| 20260902233046 | 67 | 126 | 0.0 | 2.0 | 0.00 | 0.00 | 0.00 | 73 | 1020.1 |
| 20260902232531 | 67 | 120 | 0.0 | 2.0 | 0.00 | 0.00 | 0.00 | 72 | 1020.1 |
| 20260902232028 | 67 | 140 | 0.0 | 6.0 | 0.00 | 0.00 | 0.00 | 71 | 1020.3 |
| 20260902231608 | 67 | 90 | 1.0 | 6.0 | 0.00 | 0.00 | 0.00 | 71 | 1020.3 |
| 20260902231026 | 67 | 264 | 1.0 | 3.0 | 0.00 | 0.00 | 0.00 | 70 | 1020.2 |
| 20260902230526 | 68 | 148 | 1.0 | 2.0 | 0.00 | 0.00 | 0.00 | 70 | 1020.2 |
| 20260902230048 | 68 | 0 | 0.0 | 4.0 | 0.00 | 0.00 | 0.00 | 69 | 1020.1 |
| 20260902225525 | 68 | 0 | 0.0 | 4.0 | 0.00 | 0.00 | 0.00 | 68 | 1020.2 |
| 20260902225027 | 68 | 147 | 1.0 | 4.0 | 0.00 | 0.00 | 0.00 | 67 | 1020.3 |
| 20260902224558 | 68 | 141 | 1.0 | 4.0 | 0.00 | 0.00 | 0.00 | 67 | 1020.2 |
| 20260902224033 | 69 | 0 | 1.0 | 4.0 | 0.00 | 0.00 | 0.00 | 66 | 1020.4 |
| 20260902223526 | 69 | 122 | 1.0 | 3.0 | 0.00 | 0.00 | 0.00 | 66 | 1020.4 |
| 20260902223055 | 69 | 148 | 0.0 | 3.0 | 0.00 | 0.00 | 0.00 | 66 | 1020.5 |
| 20260902222528 | 69 | 0 | 0.0 | 3.0 | 0.00 | 0.00 | 0.00 | 69 | 1020.5 |
| 20260902222028 | 69 | 0 | 0.0 | 3.0 | 0.00 | 0.00 | 0.00 | 69 | 1020.7 |
| 20260902221600 | 69 | 0 | 0.0 | 3.0 | 0.00 | 0.00 | 0.00 | 67 | 1020.6 |
| 20260902221026 | 69 | 77 | 0.0 | 3.0 | 0.00 | 0.00 | 0.00 | 66 | 1020.5 |
| 20260902220525 | 69 | 0 | 1.0 | 4.0 | 0.00 | 0.00 | 0.00 | 65 | 1020.5 |
| 20260902220058 | 69 | 292 | 0.0 | 8.0 | 0.00 | 0.00 | 0.00 | 64 | 1020.5 |
| 20260902215525 | 70 | 68 | 1.0 | 8.0 | 0.00 | 0.00 | 0.00 | 64 | 1020.3 |
| 20260902215025 | 70 | 153 | 1.0 | 8.0 | 0.00 | 0.00 | 0.00 | 64 | 1020.3 |
| 20260902214543 | 70 | 142 | 1.0 | 6.0 | 0.00 | 0.00 | 0.00 | 64 | 1020.2 |
| 20260902214025 | 70 | 356 | 0.0 | 4.0 | 0.00 | 0.00 | 0.00 | 64 | 1020.3 |
| 20260902213525 | 70 | 134 | 1.0 | 4.0 | 0.00 | 0.00 | 0.00 | 63 | 1020.4 |
| 20260902213049 | 70 | 282 | 1.0 | 5.0 | 0.00 | 0.00 | 0.00 | 64 | 1020.4 |
| 20260902212525 | 70 | 91 | 1.0 | 5.0 | 0.00 | 0.00 | 0.00 | 62 | 1020.3 |
| 20260902212028 | 71 | 28 | 1.0 | 5.0 | 0.00 | 0.00 | 0.00 | 62 | 1020.2 |
| 20260902211547 | 71 | 0 | 1.0 | 5.0 | 0.00 | 0.00 | 0.00 | 63 | 1020.1 |
| 20260902211026 | 71 | 131 | 1.0 | 5.0 | 0.00 | 0.00 | 0.00 | 63 | 1020.0 |
| 20260902210527 | 71 | 139 | 2.0 | 6.0 | 0.00 | 0.00 | 0.00 | 62 | 1020.0 |
| 20260902210054 | 71 | 172 | 1.0 | 6.0 | 0.00 | 0.00 | 0.00 | 63 | 1020.0 |
| 20260902205525 | 71 | 0 | 1.0 | 5.0 | 0.00 | 0.02 | 0.00 | 63 | 1020.1 |
| 20260902205026 | 71 | 119 | 1.0 | 4.0 | 0.00 | 0.02 | 0.00 | 63 | 1020.3 |
| 20260902204549 | 71 | 224 | 1.0 | 4.0 | 0.00 | 0.02 | 0.00 | 63 | 1020.3 |
| 20260902204029 | 71 | 0 | 0.0 | 6.0 | 0.00 | 0.02 | 0.00 | 63 | 1020.4 |
| 20260902203526 | 72 | 156 | 2.0 | 6.0 | 0.00 | 0.02 | 0.00 | 61 | 1020.3 |
| 20260902203048 | 72 | 106 | 0.0 | 7.0 | 0.00 | 0.02 | 0.00 | 62 | 1020.5 |
| 20260902202527 | 72 | 191 | 1.0 | 7.0 | 0.00 | 0.02 | 0.00 | 63 | 1020.6 |
| 20260902202029 | 72 | 133 | 2.0 | 7.0 | 0.00 | 0.02 | 0.00 | 62 | 1020.7 |
| 20260902201555 | 72 | 126 | 2.0 | 6.0 | 0.00 | 0.02 | 0.00 | 62 | 1020.7 |
| 20260902201028 | 72 | 107 | 1.0 | 5.0 | 0.00 | 0.02 | 0.00 | 63 | 1020.8 |
| 20260902200525 | 72 | 89 | 2.0 | 5.0 | 0.00 | 0.02 | 0.00 | 62 | 1020.8 |
| 20260902200048 | 72 | 151 | 1.0 | 5.0 | 0.00 | 0.02 | 0.00 | 62 | 1020.8 |
| 20260902195528 | 72 | 124 | 2.0 | 4.0 | 0.00 | 0.08 | 0.00 | 61 | 1020.9 |
| 20260902195027 | 72 | 0 | 1.0 | 4.0 | 0.00 | 0.08 | 0.00 | 61 | 1020.8 |
| 20260902194545 | 72 | 0 | 0.0 | 4.0 | 0.00 | 0.08 | 0.00 | 62 | 1020.8 |
| 20260902194026 | 72 | 310 | 1.0 | 4.0 | 0.00 | 0.08 | 0.00 | 59 | 1020.8 |
| 20260902193525 | 72 | 120 | 0.0 | 4.0 | 0.00 | 0.08 | 0.00 | 58 | 1020.9 |
| 20260902193100 | 72 | 0 | 1.0 | 4.0 | 0.00 | 0.08 | 0.00 | 60 | 1020.9 |
| 20260902192525 | 72 | 0 | 1.0 | 4.0 | 0.00 | 0.08 | 0.00 | 60 | 1021.0 |
| 20260902192025 | 72 | 0 | 1.0 | 2.0 | 0.00 | 0.08 | 0.00 | 61 | 1021.0 |
| 20260902191545 | 73 | 120 | 0.0 | 2.0 | 0.00 | 0.08 | 0.00 | 58 | 1021.0 |
| 20260902191025 | 73 | 151 | 0.0 | 6.0 | 0.00 | 0.08 | 0.00 | 59 | 1021.1 |
| 20260902190525 | 73 | 163 | 2.0 | 6.0 | 0.00 | 0.08 | 0.00 | 58 | 1020.9 |
| 20260902190052 | 73 | 139 | 0.0 | 5.0 | 0.00 | 0.08 | 0.00 | 60 | 1020.9 |
| 20260902185525 | 73 | 0 | 1.0 | 4.0 | 0.00 | 0.16 | 0.00 | 59 | 1020.9 |
| 20260902185028 | 73 | 105 | 1.0 | 4.0 | 0.00 | 0.16 | 0.00 | 59 | 1021.0 |
| 20260902184606 | 73 | 108 | 1.0 | 9.0 | 0.00 | 0.16 | 0.00 | 59 | 1021.0 |
| 20260902184027 | 73 | 131 | 1.0 | 9.0 | 0.00 | 0.16 | 0.00 | 59 | 1021.1 |
| 20260902183526 | 74 | 139 | 2.0 | 9.0 | 0.00 | 0.16 | 0.00 | 58 | 1021.1 |
| 20260902183056 | 74 | 171 | 1.0 | 5.0 | 0.00 | 0.16 | 0.00 | 63 | 1021.0 |
| 20260902182526 | 74 | 198 | 1.0 | 5.0 | 0.00 | 0.16 | 0.00 | 61 | 1020.9 |
| 20260902182026 | 74 | 195 | 1.0 | 5.0 | 0.00 | 0.16 | 0.00 | 61 | 1020.8 |
| 20260902181550 | 73 | 174 | 2.0 | 5.0 | 0.00 | 0.16 | 0.00 | 61 | 1020.9 |
| 20260902181029 | 73 | 212 | 1.0 | 4.0 | 0.00 | 0.16 | 0.00 | 62 | 1020.9 |
| 20260902180530 | 73 | 128 | 1.0 | 5.0 | 0.00 | 0.16 | 0.00 | 61 | 1020.9 |
| 20260902180044 | 73 | 82 | 1.0 | 5.0 | 0.00 | 0.16 | 0.00 | 60 | 1021.0 |
| 20260902175529 | 73 | 115 | 1.0 | 4.0 | 0.00 | 0.20 | 0.00 | 60 | 1021.0 |
| 20260902175028 | 73 | 214 | 1.0 | 4.0 | 0.00 | 0.20 | 0.00 | 62 | 1020.9 |
| 20260902174551 | 73 | 0 | 1.0 | 6.0 | 0.00 | 0.20 | 0.00 | 61 | 1020.9 |
| 20260902174025 | 74 | 100 | 2.0 | 6.0 | 0.00 | 0.20 | 0.00 | 61 | 1020.9 |
| 20260902173530 | 74 | 37 | 2.0 | 6.0 | 0.00 | 0.20 | 0.00 | 60 | 1020.9 |
| 20260902173047 | 74 | 123 | 0.0 | 4.0 | 0.00 | 0.20 | 0.00 | 59 | 1021.1 |
| 20260902172528 | 74 | 207 | 0.0 | 4.0 | 0.00 | 0.20 | 0.00 | 61 | 1021.1 |
| 20260902172028 | 74 | 73 | 1.0 | 4.0 | 0.00 | 0.20 | 0.00 | 60 | 1021.1 |
| 20260902171553 | 75 | 162 | 1.0 | 5.0 | 0.00 | 0.20 | 0.00 | 60 | 1021.1 |
| 20260902171026 | 75 | 188 | 1.0 | 5.0 | 0.00 | 0.20 | 0.00 | 63 | 1021.2 |
| 20260902170528 | 76 | 111 | 1.0 | 7.0 | 0.00 | 0.20 | 0.00 | 59 | 1021.2 |
| 20260902170053 | 76 | 224 | 1.0 | 7.0 | 0.00 | 0.20 | 0.00 | 59 | 1021.2 |
| 20260902165529 | 76 | 0 | 1.0 | 3.0 | 0.00 | 0.22 | 0.00 | 61 | 1021.1 |
| 20260902165031 | 76 | 0 | 0.0 | 3.0 | 0.00 | 0.22 | 0.00 | 64 | 1021.3 |
| 20260902164550 | 76 | 226 | 1.0 | 5.0 | 0.00 | 0.22 | 0.00 | 62 | 1021.3 |
| 20260902164026 | 75 | 146 | 1.0 | 6.0 | 0.00 | 0.22 | 0.00 | 62 | 1021.5 |
| 20260902163527 | 75 | 162 | 0.0 | 6.0 | 0.00 | 0.22 | 0.00 | 65 | 1021.6 |
| 20260902163056 | 75 | 164 | 2.0 | 6.0 | 0.00 | 0.22 | 0.00 | 62 | 1021.6 |
| 20260902162527 | 75 | 156 | 1.0 | 3.0 | 0.00 | 0.22 | 0.00 | 65 | 1021.5 |
| 20260902162028 | 74 | 0 | 1.0 | 4.0 | 0.00 | 0.22 | 0.00 | 69 | 1021.7 |
| 20260902161545 | 73 | 220 | 0.0 | 4.0 | 0.00 | 0.22 | 0.00 | 70 | 1021.8 |
| 20260902161029 | 73 | 102 | 1.0 | 4.0 | 0.00 | 0.22 | 0.00 | 71 | 1021.9 |
| 20260902160530 | 73 | 174 | 1.0 | 6.0 | 0.00 | 0.22 | 0.00 | 70 | 1021.9 |
| 20260902160046 | 73 | 139 | 1.0 | 6.0 | 0.00 | 0.22 | 0.00 | 70 | 1021.8 |
| 20260902155529 | 73 | 181 | 2.0 | 6.0 | 0.00 | 0.22 | 0.00 | 70 | 1021.7 |
| 20260902155027 | 73 | 0 | 2.0 | 4.0 | 0.00 | 0.22 | 0.00 | 70 | 1021.9 |
| 20260902154549 | 73 | 197 | 1.0 | 4.0 | 0.00 | 0.22 | 0.00 | 71 | 1021.9 |
| 20260902154028 | 72 | 94 | 0.0 | 3.0 | 0.00 | 0.22 | 0.00 | 72 | 1022.0 |
| 20260902153528 | 72 | 98 | 0.0 | 4.0 | 0.00 | 0.22 | 0.00 | 74 | 1022.1 |
| 20260902153053 | 72 | 276 | 1.0 | 4.0 | 0.00 | 0.22 | 0.00 | 72 | 1022.1 |
| 20260902152529 | 72 | 130 | 1.0 | 3.0 | 0.00 | 0.22 | 0.00 | 73 | 1022.2 |
| 20260902152029 | 72 | 89 | 2.0 | 3.0 | 0.00 | 0.22 | 0.00 | 74 | 1022.3 |
| 20260902151551 | 71 | 0 | 0.0 | 2.0 | 0.00 | 0.22 | 0.00 | 77 | 1022.2 |
| 20260902151027 | 71 | 139 | 0.0 | 2.0 | 0.00 | 0.22 | 0.00 | 80 | 1022.2 |
| 20260902150526 | 70 | 101 | 0.0 | 2.0 | 0.00 | 0.22 | 0.00 | 81 | 1022.3 |
| 20260902150047 | 70 | 29 | 0.0 | 2.0 | 0.00 | 0.22 | 0.00 | 81 | 1022.3 |
| 20260902145528 | 70 | 119 | 0.0 | 1.0 | 0.00 | 0.22 | 0.00 | 81 | 1022.3 |
| 20260902145027 | 70 | 0 | 0.0 | 2.0 | 0.00 | 0.22 | 0.00 | 80 | 1022.3 |
| 20260902144545 | 70 | 0 | 0.0 | 4.0 | 0.00 | 0.22 | 0.00 | 81 | 1022.3 |
| 20260902144027 | 69 | 0 | 1.0 | 4.0 | 0.00 | 0.22 | 0.00 | 81 | 1022.2 |
| 20260902143529 | 69 | 126 | 1.0 | 4.0 | 0.00 | 0.22 | 0.00 | 81 | 1022.1 |
| 20260902143044 | 69 | 183 | 1.0 | 4.0 | 0.00 | 0.22 | 0.00 | 81 | 1022.0 |
| 20260902142527 | 69 | 129 | 1.0 | 3.0 | 0.00 | 0.22 | 0.00 | 83 | 1022.0 |
| 20260902142027 | 69 | 248 | 1.0 | 2.0 | 0.00 | 0.22 | 0.00 | 83 | 1022.1 |
| 20260902141548 | 69 | 84 | 0.0 | 5.0 | 0.00 | 0.22 | 0.00 | 87 | 1022.1 |
| 20260902141032 | 68 | 122 | 1.0 | 5.0 | 0.00 | 0.22 | 0.00 | 86 | 1021.9 |
| 20260902140527 | 67 | 112 | 1.0 | 4.0 | 0.00 | 0.22 | 0.00 | 88 | 1021.7 |
| 20260902140045 | 67 | 140 | 0.0 | 4.0 | 0.00 | 0.22 | 0.00 | 89 | 1021.4 |
| 20260902135527 | 67 | 103 | 0.0 | 4.0 | 0.00 | 0.24 | 0.00 | 89 | 1021.5 |
| 20260902135028 | 66 | 227 | 1.0 | 3.0 | 0.00 | 0.24 | 0.00 | 90 | 1021.5 |
| 20260902134552 | 66 | 0 | 0.0 | 2.0 | 0.00 | 0.24 | 0.00 | 91 | 1021.5 |
| 20260902134025 | 66 | 11 | 1.0 | 3.0 | 0.00 | 0.24 | 0.00 | 91 | 1021.4 |
| 20260902133528 | 66 | 84 | 0.0 | 3.0 | 0.00 | 0.24 | 0.00 | 92 | 1021.4 |
| 20260902133047 | 66 | 169 | 1.0 | 5.0 | 0.00 | 0.24 | 0.00 | 93 | 1021.5 |
| 20260902132530 | 65 | 111 | 1.0 | 5.0 | 0.00 | 0.24 | 0.00 | 95 | 1021.4 |
| 20260902132027 | 65 | 350 | 1.0 | 5.0 | 0.00 | 0.24 | 0.00 | 96 | 1021.4 |
| 20260902131545 | 65 | 2 | 1.0 | 5.0 | 0.00 | 0.24 | 0.00 | 96 | 1021.4 |
| 20260902131025 | 64 | 0 | 0.0 | 3.0 | 0.00 | 0.24 | 0.00 | 97 | 1021.5 |
| 20260902130529 | 64 | 105 | 0.0 | 3.0 | 0.00 | 0.24 | 0.00 | 97 | 1021.7 |
| 20260902130043 | 64 | 4 | 0.0 | 2.0 | 0.00 | 0.24 | 0.00 | 97 | 1021.7 |
| 20260902125531 | 63 | 79 | 0.0 | 3.0 | 0.00 | 0.37 | 0.00 | 97 | 1021.8 |
| 20260902125029 | 63 | 41 | 0.0 | 3.0 | 0.00 | 0.37 | 0.00 | 97 | 1021.7 |
| 20260902124548 | 63 | 93 | 1.0 | 2.0 | 0.00 | 0.37 | 0.00 | 97 | 1021.8 |
| 20260902124026 | 63 | 0 | 0.0 | 1.0 | 0.00 | 0.37 | 0.00 | 97 | 1021.8 |
| 20260902123528 | 63 | 0 | 0.0 | 1.0 | 0.00 | 0.37 | 0.00 | 97 | 1022.0 |
| 20260902123104 | 63 | 0 | 0.0 | 1.0 | 0.00 | 0.37 | 0.00 | 97 | 1021.9 |
| 20260902122527 | 63 | 27 | 0.0 | 1.0 | 0.00 | 0.37 | 0.00 | 97 | 1021.9 |
| 20260902122026 | 63 | 0 | 0.0 | 0.0 | 0.00 | 0.37 | 0.00 | 97 | 1021.9 |
| 20260902121544 | 62 | 0 | 0.0 | 0.0 | 0.00 | 0.37 | 0.00 | 97 | 1021.8 |
| 20260902121028 | 62 | 0 | 0.0 | 0.0 | 0.00 | 0.37 | 0.00 | 97 | 1021.9 |
| 20260902120526 | 62 | 0 | 0.0 | 1.0 | 0.00 | 0.37 | 0.00 | 97 | 1022.0 |
| 20260902120053 | 62 | 0 | 0.0 | 1.0 | 0.00 | 0.37 | 0.00 | 97 | 1022.0 |
| 20260902115526 | 62 | 0 | 0.0 | 0.0 | 0.00 | 0.37 | 0.00 | 97 | 1022.0 |
| 20260902115028 | 62 | 0 | 0.0 | 0.0 | 0.00 | 0.37 | 0.00 | 97 | 1022.1 |
| 20260902114546 | 62 | 0 | 0.0 | 0.0 | 0.00 | 0.37 | 0.00 | 97 | 1022.1 |
| 20260902114027 | 62 | 0 | 0.0 | 0.0 | 0.00 | 0.37 | 0.00 | 97 | 1022.1 |
| 20260902113524 | 62 | 0 | 0.0 | 0.0 | 0.00 | 0.37 | 0.00 | 97 | 1022.1 |
| 20260902113044 | 62 | 0 | 0.0 | 0.0 | 0.00 | 0.37 | 0.00 | 97 | 1022.1 |
| 20260902112528 | 61 | 0 | 0.0 | 0.0 | 0.00 | 0.37 | 0.00 | 97 | 1022.0 |
| 20260902112024 | 61 | 0 | 0.0 | 0.0 | 0.00 | 0.37 | 0.00 | 97 | 1021.9 |
| 20260902111543 | 61 | 0 | 0.0 | 0.0 | 0.00 | 0.37 | 0.00 | 97 | 1021.8 |
| 20260902111026 | 61 | 0 | 0.0 | 0.0 | 0.00 | 0.37 | 0.00 | 97 | 1021.9 |
| 20260902110527 | 61 | 0 | 0.0 | 0.0 | 0.00 | 0.37 | 0.00 | 97 | 1021.8 |
| 20260902110047 | 61 | 0 | 0.0 | 0.0 | 0.00 | 0.37 | 0.00 | 97 | 1021.8 |
| 20260902105525 | 61 | 0 | 0.0 | 0.0 | 0.00 | 0.37 | 0.00 | 97 | 1021.7 |
| 20260902105023 | 61 | 0 | 0.0 | 0.0 | 0.00 | 0.37 | 0.00 | 97 | 1021.7 |
| 20260902104545 | 61 | 0 | 0.0 | 0.0 | 0.00 | 0.37 | 0.00 | 97 | 1021.4 |
| 20260902104025 | 61 | 0 | 0.0 | 0.0 | 0.00 | 0.37 | 0.00 | 97 | 1021.4 |
| 20260902103525 | 61 | 0 | 0.0 | 0.0 | 0.00 | 0.37 | 0.00 | 97 | 1021.3 |
| 20260902103045 | 61 | 0 | 0.0 | 0.0 | 0.00 | 0.37 | 0.00 | 97 | 1021.2 |
| 20260902102530 | 61 | 0 | 0.0 | 0.0 | 0.00 | 0.37 | 0.00 | 97 | 1021.2 |
| 20260902102027 | 61 | 0 | 0.0 | 0.0 | 0.00 | 0.37 | 0.00 | 97 | 1021.2 |
| 20260902101547 | 61 | 0 | 0.0 | 0.0 | 0.00 | 0.37 | 0.00 | 97 | 1021.2 |
| 20260902101026 | 60 | 0 | 0.0 | 0.0 | 0.00 | 0.37 | 0.00 | 97 | 1021.2 |
| 20260902100526 | 60 | 0 | 0.0 | 0.0 | 0.00 | 0.37 | 0.00 | 97 | 1021.1 |
| 20260902100047 | 60 | 0 | 0.0 | 0.0 | 0.00 | 0.37 | 0.00 | 97 | 1021.1 |
| 20260902095526 | 60 | 0 | 0.0 | 0.0 | 0.00 | 0.40 | 0.00 | 97 | 1021.0 |
| 20260902095023 | 60 | 0 | 0.0 | 0.0 | 0.00 | 0.40 | 0.00 | 98 | 1021.0 |
| 20260902094545 | 60 | 0 | 0.0 | 0.0 | 0.00 | 0.40 | 0.00 | 97 | 1020.9 |
| 20260902094024 | 60 | 0 | 0.0 | 0.0 | 0.00 | 0.40 | 0.00 | 97 | 1020.9 |
| 20260902093524 | 60 | 0 | 0.0 | 0.0 | 0.00 | 0.40 | 0.00 | 97 | 1020.8 |
| 20260902093057 | 59 | 0 | 0.0 | 0.0 | 0.00 | 0.40 | 0.00 | 97 | 1020.8 |
| 20260902092524 | 59 | 0 | 0.0 | 0.0 | 0.00 | 0.40 | 0.00 | 97 | 1020.7 |
| 20260902092027 | 59 | 0 | 0.0 | 0.0 | 0.00 | 0.40 | 0.00 | 97 | 1020.7 |
| 20260902091547 | 59 | 0 | 0.0 | 0.0 | 0.00 | 0.40 | 0.00 | 97 | 1020.6 |
| 20260902091023 | 59 | 0 | 0.0 | 0.0 | 0.00 | 0.40 | 0.00 | 97 | 1020.6 |
| 20260902090536 | 59 | 0 | 0.0 | 0.0 | 0.00 | 0.40 | 0.00 | 97 | 1020.5 |
| 20260902090045 | 60 | 0 | 0.0 | 0.0 | 0.00 | 0.40 | 0.00 | 97 | 1020.6 |
| 20260902085525 | 60 | 0 | 0.0 | 0.0 | 0.00 | 0.40 | 0.00 | 97 | 1020.5 |
| 20260902085025 | 60 | 0 | 0.0 | 0.0 | 0.00 | 0.40 | 0.00 | 97 | 1020.5 |
| 20260902084546 | 60 | 0 | 0.0 | 0.0 | 0.00 | 0.40 | 0.00 | 97 | 1020.5 |
| 20260902084024 | 60 | 0 | 0.0 | 0.0 | 0.00 | 0.40 | 0.00 | 97 | 1020.5 |
| 20260902083526 | 61 | 0 | 0.0 | 0.0 | 0.00 | 0.40 | 0.00 | 97 | 1020.4 |
| 20260902083051 | 61 | 0 | 0.0 | 0.0 | 0.00 | 0.40 | 0.00 | 97 | 1020.4 |
| 20260902082528 | 61 | 0 | 0.0 | 0.0 | 0.00 | 0.40 | 0.00 | 97 | 1020.4 |
| 20260902082026 | 61 | 0 | 0.0 | 0.0 | 0.00 | 0.40 | 0.00 | 97 | 1020.5 |
| 20260902081547 | 61 | 0 | 0.0 | 0.0 | 0.00 | 0.40 | 0.00 | 97 | 1020.6 |
| 20260902081027 | 61 | 0 | 0.0 | 2.0 | 0.00 | 0.40 | 0.00 | 97 | 1020.7 |
| 20260902080527 | 61 | 0 | 0.0 | 2.0 | 0.00 | 0.40 | 0.00 | 97 | 1020.7 |
| 20260902080046 | 62 | 353 | 0.0 | 1.0 | 0.00 | 0.40 | 0.00 | 97 | 1020.7 |